Regional Weather Roundup
Issued by NWS State College, PA

Home | Current Version | Previous Version | Text Only | Print | Product List | Glossary On
Versions: 1 2 3 4 5 6 7 8 9 10 11 12 13 14 15 16 17 18 19 20 21 22 23 24 25 26 27 28 29 30 31 32 33 34 35 36 37 38 39 40 41 42 43 44 45 46 47 48 49 50
000
ASUS41 KCTP 231810
RWRCTP

REGIONAL WEATHER ROUNDUP
NATIONAL WEATHER SERVICE STATE COLLEGE PA
200 PM EDT WED AUG 23 2017

Note: "fair" indicates few or no clouds below 12,000 feet with no
significant weather and/or obstructions to visibility.

* = STATION THAT DOES NOT REPORT PRECIPITATION /E.G. RAIN...SNOW...ETC/
    THUNDER OR FOG.

PAZ002>004-007>009-013>016-020>023-029>032-231900-
WESTERN PENNSYLVANIA

CITY           SKY/WX    TMP DP  RH WIND       PRES   REMARKS
ERIE           MOSUNNY   72  55  55 W14G21    29.94S
MEADVILLE      PTSUNNY   70  53  54 W13G18    29.96S
FRANKLIN*      PTSUNNY   72  52  49 W7        29.97S
NEW CASTLE     MOCLDY    72  54  53 W12       29.97S
BEAVER COUNTY  PTSUNNY   73  54  49 CALM      29.98S
BUTLER*        MOSUNNY   72  54  53 W8        29.98S
PITTSBURGH INT PTSUNNY   74  50  42 NW7       29.97F
PITTSBURGH     PTSUNNY   73  50  44 VRB3      29.97S
INDIANA*       PTSUNNY   73  52  46 W10       29.99F
LATROBE        MOSUNNY   73  55  53 CALM      29.98S
WASHINGTON CO* PTSUNNY   73  54  49 NW10      29.99S
$$

PAZ004>006-010>012-017>019-024>028-033>037-041-042-045-046-049>053-231900-
CENTRAL PENNSYLVANIA

CITY           SKY/WX    TMP DP  RH WIND       PRES   REMARKS
BRADFORD       MOSUNNY   69  53  56 W6G17     29.95S
DUBOIS         MOSUNNY   72  52  49 W12G20    29.96S
CLEARFIELD     PTSUNNY   72  50  45 W5        29.96S
JOHNSTOWN      PTSUNNY   70  53  54 NW14      29.99S
ALTOONA        PTSUNNY   75  54  47 W10       29.96S
STATE COLLEGE  PTSUNNY   73  52  46 SW8       29.94S
WILLIAMSPORT   PTSUNNY   79  53  40 W7G17     29.88S
SELINSGROVE    MOSUNNY   78  58  49 W9        29.91S
FT INDIANTOWN  PTSUNNY   78  55  44 W8        29.90S
CAPITAL CITY   PTSUNNY   80  52  37 N9        29.90F
HARRISBURG     MOSUNNY   80  58  46 NW8       29.89F
YORK           MOSUNNY   78  58  49 N12       29.91S
$$

PAZ038>040-043-044-047-048-054-055-060>062-067>071-231900-
EASTERN PENNSYLVANIA

CITY           SKY/WX    TMP DP  RH WIND       PRES   REMARKS
SCRANTON       PTSUNNY   74  53  48 VRB7      29.90S
MOUNT POCONO   PTSUNNY   71  53  52 VRB7G18   29.92S
ALLENTOWN      PTSUNNY   78  53  41 W7        29.88S
QUAKERTOWN*    PTCLDY    77  55  47 W5        29.89F
READING        MOSUNNY   79  56  45 W9        29.88S
LANCASTER      MOSUNNY   77  57  50 NW10      29.90S
COATESVILLE    PTCLDY    77  55  47 W10G17    29.92R
POTTSTOWN      CLOUDY    78  56  46 VRB6      29.90S
BLUE BELL      PTSUNNY   77  57  50 NW3       29.89S
DOYLESTOWN     PTSUNNY   79  55  43 W6        29.87S
WILLOW GROVE   NOT AVBL
NORTH PHILA    PTSUNNY   83  55  38 NW10      29.88S
PHILADELPHIA   PTSUNNY   83  55  38 NW12      29.87S
$$



USA.gov is the U.S. government's official web portal to all federal, state and local government web resources and services.